230P/LINEAR (2003)

Japanese version
Home page
Updated on January 1, 2010

---------------------------------------------------------------------

* Profile

Designation 230P/2002 Q15

* Orbital Elements

Epoch 2003 Mar. 22.0 TT = JDT 2452720.5
T 2003 Mar. 3.01903 TT                                  MPC
q   1.5656912            (2000.0)            P               Q
n   0.15221268     Peri.  304.38653     +0.47317537     -0.85513527
a   3.4740455      Node   116.00570     +0.86568652     +0.40675255
e   0.5493176      Incl.   13.62894     +0.16337660     +0.32139701
P   6.48

* Magnitudes Graph

        m1 = 13.2 + 5 log d + 10.0 log r

---------------------------------------------------------------------

The orbital elements are published on M.P.E.C. 2009-X47.
The magnitudes graphs are made with Comet for Windows.

---------------------------------------------------------------------

Copyright(C) Seiichi Yoshida (comet@aerith.net). All rights reserved.